Location: Góry Miechowskie
(50.3599°N, 20.1803°E)
Time: 12:15:32
(UTC+00:00)

NPP - Pass Details

Date: 15 June 2024
Orbit: 826 x 828 km, 98.7° (Epoch: 16 July)

Event Time Altitude Azimuth Distance (km) Brightness Sun altitude
Rises 00:25:56 0° 16° (NNE) 3,381 8.8 -12.7°
Reaches altitude 10° 00:28:18 10° 18° (NNE) 2,443 7.6 -12.5°
Maximum altitude 00:33:43 73° 104° (ESE) 869 3.8 -12.1°
Enters shadow 00:38:23 14° 188° (S) 2,150 5.2 -11.8°
